Starlink 11109

operational
NORAD ID: 60306 Int'l Des: 2024-133 Owner: SPXS Country: US Constellation: starlink
LEOCIRCULAR

Über Starlink 11109

Beschreibung wird geladen...

Live-Position

3D-Globus wird geladen...

Nächste Überflüge

Höhenverlauf

Altitude vs Time

uPlot chart will show altitude changes over time

Zweizeiliger Elementsatz

1 60306U 24133F 25258.46303975 .00000386 00000-0 80436-5 0 9990
2 60306 53.1576 289.9612 0000931 84.4943 275.6181 15.69705636 66219
Epoch: 15. Sept. 2025 • Age: 18 hours

Aktueller Status

Höhe 378.9 km
Geschwindigkeit 7.68 km/s
Subsatellitenpunkt -53.27°S, 121.87°E
Startdatum 28. Juli 2024
Alter 1.1 years
Typ internet

Technische Details

Klassifizierung Payload
Masse 960.00 kg
Trockenmasse 910.00 kg
Gesamtmasse 960.00 kg
Länge 0.30 m
Durchmesser 4.10 m
Spannweite 29.00 m
Form Box + pan
Hersteller SPXS
Bus-Typ Starlink V2MD
Phasenstatus In Orbit
Besitzer/Staat SPXS/US

Große Konstellationen

Loading constellations...